Location: Newark
(21.1200°N, 73.4000°E)
Time: 16:39:44
(UTC+00:00)

Vanguard 2 - All Passes

Search period start: 19 January 2020 00:00
Search period end: 29 January 2020 00:00
Orbit: 553 x 2938 km, 32.9° (Epoch: 18 January)

Date Brightness Start Highest point End Pass type
(mag) Time Alt. Az. Time Alt. Az. Time Alt. Az.
19 Jan - 03:34:53 10° SSW 03:46:01 23° SSE 03:54:26 10° ESE daylight
19 Jan - 05:44:26 10° SW 05:57:36 60° SSE 06:05:26 10° ENE daylight
19 Jan - 07:57:55 10° W 08:07:26 53° NNW 08:13:11 10° NE daylight
19 Jan - 10:12:13 10° WNW 10:16:55 22° N 10:20:30 10° NE daylight
19 Jan - 12:22:45 10° NW 12:26:27 27° NNE 12:29:53 10° ENE daylight
19 Jan - 14:30:54 10° WNW 14:34:45 51° SSW 14:39:34 10° SE visible
20 Jan - 03:51:19 10° SSW 04:04:28 32° SSE 04:13:44 10° E daylight
20 Jan - 06:02:21 10° SW 06:15:43 78° SSE 06:23:29 10° ENE daylight
20 Jan - 08:16:45 10° W 08:25:29 42° NNW 08:30:58 10° NE daylight
20 Jan - 10:30:48 10° NW 10:35:13 22° N 10:38:40 10° NE daylight
20 Jan - 12:40:34 10° NW 12:44:32 40° NNE 12:48:19 10° E daylight
20 Jan - 14:49:11 10° W 14:52:42 29° SSW 14:57:00 10° SSE visible
21 Jan - 02:01:51 10° S 02:10:08 15° SSE 02:17:25 10° ESE daylight
21 Jan - 04:08:18 10° SSW 04:22:48 43° SSE 04:32:29 10° E daylight
21 Jan - 06:20:37 10° WSW 06:33:48 83° NNW 06:41:23 10° ENE daylight
21 Jan - 08:35:41 10° W 08:43:39 34° NNW 08:48:49 10° NE daylight
21 Jan - 10:49:07 10° NW 10:53:32 23° N 10:57:01 10° ENE daylight
21 Jan - 12:58:24 10° WNW 13:02:32 67° NNE 13:06:33 10° ESE daylight
21 Jan - 15:08:03 10° WSW 15:10:42 16° SSW 15:13:46 10° S visible
22 Jan - 02:16:58 10° S 02:28:43 22° SSE 02:38:24 10° ESE daylight
22 Jan - 04:25:41 10° SW 04:41:03 56° SSE 04:50:52 10° ENE daylight
22 Jan - 06:39:11 10° WSW 06:51:52 66° NNW 06:59:15 10° ENE daylight
22 Jan - 08:54:38 10° WNW 09:01:53 30° NNW 09:06:47 10° NE daylight
22 Jan - 11:07:14 10° NW 11:11:50 27° N 11:15:26 10° ENE daylight
22 Jan - 13:16:22 10° WNW 13:20:26 68° SSW 13:24:30 10° SE visible
23 Jan - 02:33:08 10° SSW 02:47:10 30° SSE 02:58:05 10° E daylight
23 Jan - 04:43:27 10° SW 04:59:14 71° SSE 05:09:00 10° ENE daylight
23 Jan - 06:57:58 10° W 07:09:58 54° NNW 07:17:05 10° NE daylight
23 Jan - 09:13:27 10° WNW 09:20:13 28° N 09:24:52 10° NE daylight
23 Jan - 11:25:12 10° NW 11:30:02 36° NNE 11:33:49 10° E daylight
23 Jan - 13:34:34 10° W 13:38:17 35° SSW 13:42:04 10° SE visible
24 Jan - 00:45:37 10° SSE 00:52:25 13° SE 00:58:52 10° ESE visible
24 Jan - 02:49:54 10° SSW 03:05:29 40° SSE 03:17:05 10° E daylight
24 Jan - 05:01:32 10° WSW 05:17:22 87° SSE 05:27:01 10° ENE daylight
24 Jan - 07:16:57 10° W 07:28:09 45° NNW 07:34:58 10° NE daylight
24 Jan - 09:32:05 10° WNW 09:38:35 29° N 09:43:05 10° ENE daylight
24 Jan - 11:43:08 10° WNW 11:48:09 54° NNE 11:52:04 10° E daylight
24 Jan - 13:53:14 10° W 13:56:08 19° SSW 13:59:06 10° SSE visible
25 Jan - 00:59:50 10° S 01:10:59 20° SE 01:21:07 10° ESE visible
25 Jan - 03:07:06 10° SW 03:23:44 52° SSE 03:35:40 10° ENE daylight
25 Jan - 05:19:56 10° WSW 05:35:31 77° NNW 05:44:57 10° ENE daylight
25 Jan - 07:35:59 10° W 07:46:26 39° NNW 07:52:56 10° NE daylight
25 Jan - 09:50:30 10° WNW 09:56:58 32° N 10:01:24 10° ENE daylight
25 Jan - 12:01:07 10° WNW 12:06:08 89° NE 12:10:06 10° ESE daylight
26 Jan - 01:15:38 10° SSW 01:29:21 27° SE 01:41:25 10° E visible
26 Jan - 03:24:39 10° SW 03:41:56 65° SSE 03:53:58 10° ENE daylight
26 Jan - 05:38:38 10° WSW 05:53:41 65° NNW 06:02:51 10° ENE daylight
26 Jan - 07:55:00 10° WNW 08:04:48 36° N 08:10:59 10° ENE daylight
26 Jan - 10:08:43 10° NW 10:15:17 38° N 10:19:43 10° E daylight
26 Jan - 12:19:16 10° WNW 12:23:59 51° SSW 12:27:49 10° SE daylight
27 Jan - 01:32:08 10° SSW 01:47:36 37° SE 02:00:48 10° E daylight
27 Jan - 03:42:33 10° SW 04:00:06 80° SSE 04:12:04 10° ENE daylight
27 Jan - 05:57:32 10° W 06:11:57 55° NNW 06:20:46 10° ENE daylight
27 Jan - 08:13:53 10° WNW 08:23:14 36° N 08:29:10 10° ENE daylight
27 Jan - 10:26:50 10° WNW 10:33:31 50° NNE 10:37:58 10° E daylight
27 Jan - 12:37:43 10° W 12:41:43 27° SW 12:45:08 10° SSE daylight
27 Jan - 23:44:03 10° S 23:53:04 16° SE 00:02:05 10° ESE visible
28 Jan - 01:49:06 10° SSW 02:05:47 47° SE 02:19:38 10° ENE daylight
28 Jan - 04:00:44 10° WSW 04:18:19 86° NNW 04:30:06 10° ENE daylight
28 Jan - 06:16:35 10° W 06:30:17 48° NNW 06:38:46 10° ENE daylight
28 Jan - 08:32:35 10° WNW 08:41:41 37° N 08:47:26 10° ENE daylight
28 Jan - 10:44:55 10° WNW 10:51:37 73° NNE 10:56:03 10° ESE daylight
28 Jan - 12:56:50 10° WSW 12:59:23 15° SW 13:01:42 10° S daylight
